Regional Weather Roundup
Issued by NWS

Home | Current Version | Previous Version | Graphics & Text | Print | Product List | Glossary Off
Versions: 1 2 3 4 5 6 7 8 9 10 11 12 13 14 15 16 17 18 19 20 21 22 23 24 25 26 27 28 29 30 31 32 33 34 35 36 37 38 39 40 41 42 43 44 45 46 47 48 49 50

000
ASUS43 KMKX 270700
RWRWI

WISCONSIN REGIONAL WEATHER ROUNDUP
NATIONAL WEATHER SERVICE MILWAUKEE/SULLIVAN WI
100 AM CST SAT DEC 27 2014

NOTE: "FAIR" INDICATES FEW OR NO CLOUDS BELOW 12,000 FEET WITH NO
SIGNIFICANT WEATHER AND/OR OBSTRUCTIONS TO VISIBILITY.

WIZ001-002-006>008-014>016-023>028-270800-
NORTHWEST WISCONSIN

CITY           SKY/WX    TMP DP  RH WIND       PRES   REMARKS
SUPERIOR ARPT  CLOUDY    28  20  72 N5        30.09F WCI  22
ASHLAND        LGT SNOW  28  27  96 N7        30.06F FOG     WCI  21
HAYWARD        LGT SNOW  27  25  92 N5        30.02F FOG     WCI  22
SIREN          LGT SNOW  27  25  93 N6        30.05F WCI  20
CUMBERLAND     LGT SNOW  28  27  93 N9        30.00F WCI  20
RICE LAKE      LGT SNOW  29  27  92 N12       30.00F WCI  19
CHETEK         LGT SNOW  29  27  92 N6        30.00F WCI  23
LADYSMITH      LGT SNOW  30  28  94 N8        30.00F WCI  22
EAU CLAIRE     LGT SNOW  30  27  88 N8        29.97F FOG     WCI  22
MENOMONIE      LGT SNOW  31  29  94 N7        29.99F VSB 1   WCI  24
NEW RICHMOND   FLURRIES  28  27  98 N12       30.00F WCI  18
OSCEOLA        LGT SNOW  28  28 100 N7        30.04F WCI  21
$$

WIZ003>005-009-010-017-018-270800-
NORTH CENTRAL WISCONSIN

CITY           SKY/WX    TMP DP  RH WIND       PRES   REMARKS
MANITOWISH WTR LGT SNOW  28  28 100 N3        29.99S
ARBOR VITAE    LGT SNOW  32  30  94 CALM      29.98F
WOODRUFF       LGT SNOW  32  30  94 CALM      29.98F
RHINELANDER    LGT SNOW  29  28  96 NE6       29.97F VSB 3/4 WCI  23
EAGLE RIVER    LGT SNOW  29  29 100 CALM      29.97F
LAND O LAKES   LGT SNOW  30  29  97 NE5       29.99F WCI  25
PHILLIPS       LGT SNOW  28  27  96 N6        29.98F WCI  21
TOMAHAWK       LGT SNOW  29  28  96 CALM      29.98S VSB 1
MEDFORD        LGT SNOW  30  29  97 NE5       29.95F VSB 3/4 WCI  25
MERRILL        LGT SNOW  31  31 100 NE5       29.97F VSB 1   WCI  26
$$

WIZ029-030-035-036-043>047-270800-
CENTRAL WISCONSIN

CITY           SKY/WX    TMP DP  RH WIND       PRES   REMARKS
WAUSAU         LGT SNOW  33  31  92 CALM      29.95S FOG
MOSINEE        LGT SNOW  32  32 100 NE3       29.97F
MARSHFIELD     CLOUDY    33  31  92 NE10      29.91F FOG     WCI  25
STEVENS POINT  CLOUDY    31  31  99 NE5       29.96F FOG     WCI  26
WAUPACA        FOG       35  34  96 CALM      29.97S VSB 1
WAUTOMA        NOT AVBL
WISC RAPIDS    CLOUDY    33  31  92 E7        29.96F FOG     WCI  27
CAMP DOUGLAS   CLOUDY    32  32 100 SE3       29.96R
$$

WIZ011>013-019>022-031-037>040-048>050-270800-
NORTHEAST WISCONSIN

CITY           SKY/WX    TMP DP  RH WIND       PRES   REMARKS
ANTIGO         LGT SNOW  31  31 100 CALM      29.96S
SHAWANO        CLOUDY    34  33  96 E5        29.99S FOG     WCI  30
OCONTO         CLOUDY    33  33 100 CALM      29.99F
STURGEON BAY   CLOUDY    36  34  93 NE3       30.00F
GREEN BAY      CLOUDY    34  32  92 NE13      29.97F FOG     WCI  25
MANITOWOC      NOT AVBL
APPLETON       CLOUDY    32  32 100 E6        29.97F FOG     WCI  26
CLINTONVILLE   FOG       32  32 100 NE6       29.97F VSB 3/4 WCI  26
OSHKOSH        PTCLDY    31  29  92 NE3       29.95F FOG
$$

WIZ032>034-041-042-053>061-270800-
SOUTHWEST WISCONSIN

CITY           SKY/WX    TMP DP  RH WIND       PRES   REMARKS
LA CROSSE      LGT SNOW  33  32  96 N6        29.95F FOG     WCI  28
SPARTA         CLOUDY    33  33  99 CALM      29.98R FOG
VIROQUA        CLOUDY    33  33 100 CALM      29.93S
BOSCOBEL       CLOUDY    33  31  92 CALM      29.94F
PRAIRIE DU CHI CLOUDY    33  32  95 CALM      29.94F
PLATTEVILLE    CLOUDY    38  36  91 E3        29.94F
$$

WIZ056-057-062-063-064-067-068-270800-
SOUTH CENTRAL WISCONSIN

CITY           SKY/WX    TMP DP  RH WIND       PRES   REMARKS
REEDSBURG      CLOUDY    32  32  99 CALM      29.95R FOG
BARABOO/DELLS  FOG       32  31  97 CALM      29.95S VSB 3/4
LONE ROCK      NOT AVBL
MINERAL POINT  LGT RAIN  39  36  87 CALM      29.93F
MADISON        CLOUDY    34  32  92 CALM      29.94F
MIDDLETON      MOCLDY    35  34  97 CALM      29.94F
WATERTOWN      CLOUDY    37  37  99 E3        29.95F
MONROE         CLOUDY    41  39  93 SE6       29.93F
JANESVILLE     CLOUDY    43  39  87 SE3       29.95F
$$

WIZ051-052-058>065-066-070>072-270800-
SOUTHEAST WISCONSIN

CITY           SKY/WX    TMP DP  RH WIND       PRES   REMARKS
MILWAUKEE      CLOUDY    44  39  82 S8        29.97F
WAUKESHA       CLOUDY    39  36  87 S3        29.98F
MILWAUKEE/TIMM CLOUDY    39  36  87 CALM      29.98F
RACINE         CLOUDY    45  40  82 S3        30.00F
BURLINGTON     CLOUDY    37  36  95 CALM      29.97F
KENOSHA        CLOUDY    44  40  85 S6        29.99F
FOND DU LAC    MOCLDY    32  31  96 S3        29.95F FOG
SHEBOYGAN      FOG       33  33 100 CALM      29.98S VSB 1/2
WEST BEND      CLOUDY    32  32 100 CALM      29.98F
JUNEAU         CLOUDY    35  33  93 E8        29.96F WCI  29
$$

LSZ147-162-270800-
LAKE SUPERIOR

STATION/POSITION TIME  TEMP    WIND        PRES    WAVE
                       AIR SEA DIR/SP/G            HT/PER
                 (UTC) (F)     (DEG/KT/KT) (MB)    (FT/S)
DEVILS ISLAND    0600   30      10/ 14/ 16 1019.8F
PORT WING        0640   30     360/  9/ 12 1018.6F
SAXON HARBOR     0600   31     340/  4/  6 1018.3F
$$

LMZ867-665-643>646-270800-
LAKE MICHIGAN

STATION/POSITION TIME  TEMP    WIND        PRES    WAVE
                       AIR SEA DIR/SP/G            HT/PER
                 (UTC) (F)     (DEG/KT/KT) (MB)    (FT/S)
CHAMBERS ISLAND  0600   34      20/  7/  8 1016.6F
NORTHPORT PIER   0600   35     360/  2/  5 1016.6F
SISTER BAY       0613             CALM       N/A
ALGOMA LAKESHORE 0630           70/  9/ 12   N/A
KEWAUNEE LAKESHO 0600   36      30/  4/  6 1015.4F
SHEBOYGAN LAKESH 0600   36 39  350/  7/  8 1016.5F
PORT WASHINGTON  0600   37      CALM  /  1 1016.6F
MILWAUKEE LAKESH 0600   41     180/  2/  3   N/A
KENOSHA   LAKESH 0600   44     190/  2/  4 1015.9F
$$

TC  - TEMPERATURE IN CELSIUS
VSB - VISIBILITY IN STATUTE MILES
WCI - WIND CHILL INDEX
HX  - HEAT INDEX




USA.gov is the U.S. government's official web portal to all federal, state and local government web resources and services.